Weather Roundup
Issued by NWS

Home | Current Version | Previous Version | Text Only | Print | Product List | Glossary On
Versions: 1 2 3 4 5 6 7 8 9 10 11 12 13 14 15 16 17 18 19 20 21 22 23 24 25 26 27 28 29 30 31 32 33 34 35 36 37 38 39 40 41 42 43 44 45 46 47 48 49 50
000
NZUS93 KARX 310710
HRRWXR

CURRENT HOURLY OBSERVATIONS ACROSS
MUCH OF THE UPPER MISSISSIPPI VALLEY
NATIONAL WEATHER SERVICE LA CROSSE WI
200 AM CDT MON AUG 31 2015


...SOUTHEAST MINNESOTA...


CITY           SKY/WX    TMP DP  RH WIND       PRES   REMARKS
ROCHESTER      CLEAR     60  59  96 S7        30.00S FOG
ROCHESTER/MAYO FAIR      63  63 100 SE5       29.99S
WINONA         CLEAR     61  61 100 CALM      29.99S
AUSTIN         NOT AVBL
ALBERT LEA     CLEAR     64  63  94 S7        29.98F FOG
DODGE CENTER   PTCLDY    64  63  94 S9        29.98S
PRESTON        CLEAR     61  60  95 S7        30.01S FOG
OWATONNA       CLEAR     64  61  88 S8        29.96F FOG
FARIBAULT      CLEAR     63  63 100 S3        29.96S FOG
$$

...ELSEWHERE IN MINNESOTA...


CITY           SKY/WX    TMP DP  RH WIND       PRES   REMARKS
MINNEAPOLIS    MOCLDY    68  64  87 S6        29.94R
INTNL FALLS    PTCLDY    67  65  93 VRB3      29.77S
DULUTH         CLOUDY    67  65  93 SW14      29.90S
RED WING       CLEAR     63  61  94 SE5       29.95F
REDWOOD FALLS  PTCLDY    65  63  93 S8        29.88F
MANKATO        CLEAR     64  61  88 S7        29.94S
WORTHINGTON    PTCLDY    64  63  94 S14       29.93F
FAIRMONT       PTCLDY    64  59  82 S8        29.95S
$$

...SOUTHWEST WISCONSIN...


CITY           SKY/WX    TMP DP  RH WIND       PRES   REMARKS
LA CROSSE      CLEAR     62  62 100 SE6       30.00R FOG
PRAIRIE DU CHI CLOUDY    59  58  96 CALM      30.02R FOG
BOSCOBEL       FOG       59  58  96 CALM      30.02S VSB 1/4
LONE ROCK      FOG       59  58  96 CALM      30.03S VSB 3/4
PLATTEVILLE    CLEAR     62  62 100 S5        30.03S
FORT MC COY    CLEAR     55  54  95 CALM      30.02S
CAMP DOUGLAS   FOG       54  54 100 E3        30.01S VSB 1/2
VIROQUA          N/A     61  61 100 S5        30.03S
WIS DELLS      FOG       61  59  95 CALM      30.02S VSB 1/2
$$

...ELSEWHERE IN WISCONSIN...


CITY           SKY/WX    TMP DP  RH WIND       PRES   REMARKS
MILWAUKEE      CLEAR     62  60  93 S3        30.02F FOG
MADISON        CLEAR     63  61  93 CALM      30.02S
GREEN BAY      CLEAR     63  61  93 S3        30.00S FOG
EAU CLAIRE     CLEAR     62  60  93 S5        29.97S
BLACK RVR FLS  FOG       54  54 100 CALM      30.00S VSB<1/4
MEDFORD        FOG       61  61 100 SW3       30.01S VSB 1/2
WAUSAU         MOCLDY    63  62  97 SW6       30.00S
WIS RAPIDS     FOG       59  57  93 SW3       30.02S VSB 1/4
MARSHFIELD     FOG       61  58  90 SW5       30.01S VSB 1/4
RICE LAKE      PTCLDY    62  61  95 SE5       29.98S
$$

...NORTHEAST IOWA...


CITY           SKY/WX    TMP DP  RH WIND       PRES   REMARKS
DECORAH        CLOUDY    63  63 100 S7        30.01S FOG
MASON CITY     FOG       58  58 100 S5        30.01S VSB 1/4
CHARLES CITY   CLOUDY    63  63 100 S6        30.02S FOG
OELWEIN        CLEAR     59  59 100 SE3       30.03S FOG
$$

...ELSEWHERE IN IOWA...


CITY           SKY/WX    TMP DP  RH WIND       PRES   REMARKS
DES MOINES     CLEAR     69  66  90 SE8       29.98F
IOWA CITY      CLEAR     63  62  97 CALM      30.02F FOG
FORT DODGE     CLEAR     64  63  94 S5        29.99F
$$

...NORTHERN ILLINOIS...


CITY           SKY/WX    TMP DP  RH WIND       PRES   REMARKS
CHICAGO-OHARE  MOCLDY    64  63  96 CALM      30.03S FOG
CHICAGO-MIDWAY CLEAR     68  64  87 CALM      30.03F FOG
MOLINE         CLEAR     61  60  97 SE3       30.01F FOG
ROCKFORD       CLEAR     62  59  90 CALM      30.04F
PEORIA         CLEAR     69  65  86 E3        30.02F
$$

NOTE: "FAIR" INDICATES FEW OR NO CLOUDS BELOW 12,000 FEET WITH NO
SIGNIFICANT WEATHER AND/OR OBSTRUCTIONS TO VISIBILITY. WIND
SPEEDS ARE IN MILES-PER-HOUR.



USA.gov is the U.S. government's official web portal to all federal, state and local government web resources and services.